Location: Cella
(44.7333°N, 10.5667°E)
Time: 11:43:56
(UTC+00:00)

Cosmos 192 - Pass Details

Date: 03 March 2021
Orbit: 700 x 714 km, 74.0° (Epoch: 18 April)

Event Time Altitude Azimuth Distance (km) Brightness Sun altitude
Rises 19:14:15 0° 201° (SSW) 3,072 7.7 -23.0°
Reaches altitude 10° 19:16:33 10° 202° (SSW) 2,159 6.9 -23.4°
Maximum altitude 19:21:26 83° 290° (WNW) 714 4.3 -24.3°
Drops below altitude 10° 19:26:22 10° 20° (NNE) 2,181 6.8 -25.1°
Sets 19:28:42 0° 21° (NNE) 3,106 7.6 -25.5°
